海康web3.0开发包.rar
下载
开发 视频 海康威视
查看(6)

所属分类:音视频 > 直播技术
文件大小:9.6 MB
上传日期:2019-11-04 21:48
MD5:505b8fdde4************a431fca2c6
资源说明:海康威视的视频web版本开发包,内含演示demo,可自行配置参数验证。
移动页面: MIP AMP

[资源合计] 文件夹:29,文件:62

# 文件名称 大小 最后修改时间
1 海康web3.0开发包\demo\cn\demo-easy.html 2.92 KB 2017/11/10 18:14:56
2 海康web3.0开发包\demo\cn\demo-iframe.html 3.04 KB 2017/11/10 18:14:56
3 海康web3.0开发包\demo\cn\demo-requirejs.html 3.04 KB 2017/11/10 18:14:56
4 海康web3.0开发包\demo\cn\demo-seajs.html 3.31 KB 2017/11/10 18:14:56
5 海康web3.0开发包\demo\cn\demo.html 22.78 KB 2019/1/12 22:44:48
6 海康web3.0开发包\demo\cn\demo.js 67.95 KB 2017/11/10 18:14:56
7 海康web3.0开发包\demo\cn\iframe.html 1.13 KB 2017/11/10 18:14:56
8 海康web3.0开发包\demo\codebase\jsPlugin-1.0.0.min.js 227.99 KB 2017/11/10 18:14:56
9 海康web3.0开发包\demo\codebase\playctrl\AudioRenderer.js 2.43 KB 2017/11/10 18:14:58
10 海康web3.0开发包\demo\codebase\playctrl\Decoder.js 2.86 MB 2017/11/10 18:14:58
11 海康web3.0开发包\demo\codebase\playctrl\Decoder.js.mem 176.47 KB 2017/11/10 18:14:58
12 海康web3.0开发包\demo\codebase\playctrl\DecodeWorker.js 5.29 KB 2017/11/10 18:14:58
13 海康web3.0开发包\demo\codebase\playctrl\SuperRender.js 5.49 KB 2017/11/10 18:14:58
14 海康web3.0开发包\demo\codebase\transform\systemTransform-worker.min.js 811 Bytes 2017/11/10 18:14:56
15 海康web3.0开发包\demo\codebase\transform\SystemTransform.js 1 MB 2017/11/10 18:14:56
16 海康web3.0开发包\demo\codebase\transform\SystemTransform.js.mem 28.92 KB 2017/11/10 18:14:58
17 海康web3.0开发包\demo\codebase\WebComponentsKit.exe 6.57 MB 2017/11/10 18:14:56
18 海康web3.0开发包\demo\codebase\webVideoCtrl.js 97.07 KB 2019/1/12 22:36:02
19 海康web3.0开发包\demo\demo.css 5.23 KB 2017/11/10 18:14:54
20 海康web3.0开发包\demo\en\demo-easy.html 2.96 KB 2017/11/10 18:14:56
21 海康web3.0开发包\demo\en\demo-iframe.html 3.07 KB 2017/11/10 18:14:56
22 海康web3.0开发包\demo\en\demo-requirejs.html 3.09 KB 2017/11/10 18:14:56
23 海康web3.0开发包\demo\en\demo-seajs.html 3.35 KB 2017/11/10 18:14:56
24 海康web3.0开发包\demo\en\demo.html 22.93 KB 2017/11/10 18:14:56
25 海康web3.0开发包\demo\en\demo.js 68.52 KB 2017/11/10 18:14:56
26 海康web3.0开发包\demo\en\iframe.html 1.21 KB 2017/11/10 18:14:56
27 海康web3.0开发包\demo\index.html 600 Bytes 2017/11/10 18:14:54
28 海康web3.0开发包\demo\jquery-1.7.1.min.js 91.76 KB 2017/11/10 18:14:54
29 海康web3.0开发包\demo\require-2.3.3.min.js 17.41 KB 2017/11/10 18:14:54
30 海康web3.0开发包\demo\sea-3.0.1.min.js 8.92 KB 2017/11/10 18:14:54
31 海康web3.0开发包\doc\Web3.0_development_kit_interfaces_description.pdf 731.88 KB 2017/11/10 18:14:54
32 海康web3.0开发包\doc\Web3.0_控件开发包编程指南.pdf 927.01 KB 2017/11/10 18:14:54
33 海康web3.0开发包\nginx\conf\fastcgi.conf 1.08 KB 2017/11/10 18:14:56
34 海康web3.0开发包\nginx\conf\fastcgi_params 1.01 KB 2017/11/10 18:14:56
35 海康web3.0开发包\nginx\conf\koi-utf 2.88 KB 2017/11/10 18:14:56
36 海康web3.0开发包\nginx\conf\koi-win 2.27 KB 2017/11/10 18:14:56
37 海康web3.0开发包\nginx\conf\mime.types 3.95 KB 2017/11/10 18:14:56
38 海康web3.0开发包\nginx\conf\nginx.conf 2.89 KB 2017/11/10 18:14:56
39 海康web3.0开发包\nginx\conf\scgi_params 653 Bytes 2017/11/10 18:14:56
40 海康web3.0开发包\nginx\conf\uwsgi_params 681 Bytes 2017/11/10 18:14:56
41 海康web3.0开发包\nginx\conf\win-utf 3.65 KB 2017/11/10 18:14:56
42 海康web3.0开发包\nginx\contrib\geo2nginx.pl 1.24 KB 2017/11/10 18:14:56
43 海康web3.0开发包\nginx\contrib\README 543 Bytes 2017/11/10 18:14:56
44 海康web3.0开发包\nginx\contrib\unicode2nginx\koi-utf 5.85 KB 2017/11/10 18:14:56
45 海康web3.0开发包\nginx\contrib\unicode2nginx\unicode-to-nginx.pl 1.06 KB 2017/11/10 18:14:56
46 海康web3.0开发包\nginx\contrib\unicode2nginx\win-utf 5.21 KB 2017/11/10 18:14:56
47 海康web3.0开发包\nginx\contrib\vim\ftdetect\nginx.vim 198 Bytes 2017/11/10 18:14:56
48 海康web3.0开发包\nginx\contrib\vim\indent\nginx.vim 250 Bytes 2017/11/10 18:14:56
49 海康web3.0开发包\nginx\contrib\vim\syntax\nginx.vim 36.19 KB 2017/11/10 18:14:56
50 海康web3.0开发包\nginx\docs\CHANGES 258.06 KB 2017/11/10 18:14:56
51 海康web3.0开发包\nginx\docs\CHANGES.ru 393.55 KB 2017/11/10 18:14:56
52 海康web3.0开发包\nginx\docs\LICENSE 1.36 KB 2017/11/10 18:14:56
53 海康web3.0开发包\nginx\docs\OpenSSL.LICENSE 6.13 KB 2017/11/10 18:14:56
54 海康web3.0开发包\nginx\docs\PCRE.LICENCE 3.11 KB 2017/11/10 18:14:56
55 海康web3.0开发包\nginx\docs\README 49 Bytes 2017/11/10 18:14:56
56 海康web3.0开发包\nginx\docs\zlib.LICENSE 983 Bytes 2017/11/10 18:14:56
57 海康web3.0开发包\nginx\html\50x.html 537 Bytes 2017/11/10 18:14:56
58 海康web3.0开发包\nginx\html\index.html 612 Bytes 2017/11/10 18:14:56
59 海康web3.0开发包\nginx\nginx.exe 2.77 MB 2017/11/10 18:14:54
60 海康web3.0开发包\nginx\RunHiddenConsole.exe 1.5 KB 2017/11/10 18:14:54
61 海康web3.0开发包\nginx\start.bat 114 Bytes 2017/11/10 18:14:56
62 海康web3.0开发包\nginx\stop.bat 82 Bytes 2017/11/10 18:14:56
63 海康web3.0开发包\nginx\temp\proxy_temp\1\00 0 Bytes 2017/11/10 18:14:56
64 海康web3.0开发包\nginx\temp\proxy_temp\2\00 0 Bytes 2017/11/10 18:14:56
65 海康web3.0开发包\nginx\contrib\vim\ftdetect 0 Bytes 2019/1/19 12:00:47
66 海康web3.0开发包\nginx\contrib\vim\indent 0 Bytes 2019/1/19 12:00:47
67 海康web3.0开发包\nginx\contrib\vim\syntax 0 Bytes 2019/1/19 12:00:47
68 海康web3.0开发包\nginx\temp\proxy_temp\1 0 Bytes 2019/1/19 12:00:47
69 海康web3.0开发包\nginx\temp\proxy_temp\2 0 Bytes 2019/1/19 12:00:47
70 海康web3.0开发包\demo\codebase\playctrl 0 Bytes 2019/1/19 12:00:46
71 海康web3.0开发包\demo\codebase\transform 0 Bytes 2019/1/19 12:00:47
72 海康web3.0开发包\nginx\contrib\unicode2nginx 0 Bytes 2019/1/19 12:00:47
73 海康web3.0开发包\nginx\contrib\vim 0 Bytes 2019/1/19 12:00:47
74 海康web3.0开发包\nginx\temp\client_body_temp 0 Bytes 2017/11/10 18:14:56
75 海康web3.0开发包\nginx\temp\fastcgi_temp 0 Bytes 2017/11/10 18:14:56
76 海康web3.0开发包\nginx\temp\proxy_temp 0 Bytes 2019/1/19 12:00:47
77 海康web3.0开发包\nginx\temp\scgi_temp 0 Bytes 2017/11/10 18:14:56
78 海康web3.0开发包\nginx\temp\uwsgi_temp 0 Bytes 2017/11/10 18:14:56
79 海康web3.0开发包\demo\cn 0 Bytes 2019/1/19 12:00:46
80 海康web3.0开发包\demo\codebase 0 Bytes 2019/1/19 12:00:46
81 海康web3.0开发包\demo\en 0 Bytes 2019/1/19 12:00:47
82 海康web3.0开发包\nginx\conf 0 Bytes 2019/1/19 12:00:47
83 海康web3.0开发包\nginx\contrib 0 Bytes 2019/1/19 12:00:47
84 海康web3.0开发包\nginx\docs 0 Bytes 2019/1/19 12:00:47
85 海康web3.0开发包\nginx\html 0 Bytes 2019/1/19 12:00:47
86 海康web3.0开发包\nginx\logs 0 Bytes 2017/11/10 18:14:56
87 海康web3.0开发包\nginx\temp 0 Bytes 2019/1/19 12:00:47
88 海康web3.0开发包\demo 0 Bytes 2019/1/19 12:00:47
89 海康web3.0开发包\doc 0 Bytes 2019/4/1 16:53:53
90 海康web3.0开发包\nginx 0 Bytes 2019/1/19 12:00:47
91 海康web3.0开发包 0 Bytes 2019/1/19 12:00:47

请留下有营养的评论,广告灌水一律拉黑处理,谢谢合作!